Location: Newark
(35.8582°N, 82.7116°W)
Time: 12:09:39
(UTC+00:00)

Hubble Space Telescope - Pass Details

Date: 01 October 2019
Orbit: 536 x 540 km, 28.5° (Epoch: 16 October)

Event Time Altitude Azimuth Distance (km) Brightness Sun altitude
Rises 00:35:01 0° 224° (SW) 2,670 4.8 -16.8°
Reaches altitude 10° 00:37:56 10° 203° (SSW) 1,780 3.6 -17.3°
Maximum altitude 00:40:34 17° 163° (SSE) 1,414 2.6 -17.9°
Enters shadow 00:40:34 17° 163° (SSE) 1,414 2.6 -17.9°
